This demonstration page uses our WeatherBlox Daily Observations layout. Learn more.

Left ArrowRight Arrow

41.12389, -100.76542

Hourly Observations for September 24, 2016

Temp ( °F °C ) Dew Point ( °F °C ) Humidity (%) Winds ( mph kmh ) Pressure ( in mb ) Visibility ( mi km ) Precip ( " mm )
12:53 am 00:53 Clear 76 24.4 58 14.4 54 54 S 18 30 29.70 1006 10 16 0.00 0.00
1:39 am 01:39 Mostly Clear with Thunderstorms 75 23.9 59 15 58 58 S 20 31 29.65 1004 10 16 0.00 0.00
1:53 am 01:53 Mostly Cloudy with Strong Thunderstorms 72 22.2 63 17.2 73 73 SSE 17 28 29.70 1006 3 4 0.05 1.27
2:06 am 02:06 Windy with Storms Likely 72 22 64 18 78 78 SSE 25 41 29.68 1005 10 16 0.00 0.00
2:33 am 02:33 Partly Cloudy with Nearby Thunderstorms 70 21.1 63 17.2 79 79 SSE 10 17 29.68 1005 10 16 0.08 2.03
2:50 am 02:50 Mostly Clear 70 21 63 17 78 78 SE 9 15 29.68 1005 10 16 0.00 0.00
2:53 am 02:53 Clear 68 20 63 17.2 84 84 SE 8 13 29.70 1006 10 16 0.08 2.03
3:53 am 03:53 Partly Cloudy 68 20 61 16.1 78 78 SW 8 13 29.71 1006 10 16 0.00 0.00
4:53 am 04:53 Clear 60 15.6 55 12.8 84 84 W 13 20 29.74 1007 10 16 0.00 0.00
5:53 am 05:53 Clear 57 13.9 49 9.4 74 74 WNW 18 30 29.78 1009 10 16 0.00 0.00
6:53 am 06:53 Clear 55 12.8 47 8.3 74 74 WNW 9 15 29.83 1010 10 16 0.00 0.00
7:53 am 07:53 Sunny 52 11.1 47 8.3 83 83 WNW 8 13 29.85 1011 10 16 0.00 0.00
8:53 am 08:53 Sunny 56 13.3 47 8.3 72 72 WNW 6 9 29.87 1012 10 16 0.00 0.00
9:53 am 09:53 Sunny 59 15 46 7.8 62 62 W 9 15 29.89 1012 10 16 0.00 0.00
10:53 am 10:53 Sunny 61 16.1 47 8.3 60 60 WNW 8 13 29.90 1013 10 16 0.00 0.00
11:53 am 11:53 Sunny 70 21.1 48 8.9 46 46 WNW 8 13 29.89 1012 10 16 0.00 0.00
12:53 pm 12:53 Mostly Sunny 76 24.4 44 6.7 32 32 WNW 7 11 29.90 1012 10 16 0.00 0.00
1:53 pm 13:53 Sunny 79 26.1 41 5 26 26 W 7 11 29.87 1012 10 16 0.00 0.00
2:53 pm 14:53 Sunny 80 26.7 39 3.9 23 23 NNW 8 13 29.84 1011 10 16 0.00 0.00
3:53 pm 15:53 Sunny 80 26.7 38 3.3 22 22 WSW 8 13 29.82 1010 7 11 0.00 0.00
4:53 pm 16:53 Hazy 79 26.1 37 2.8 22 22 W 8 13 29.85 1011 5 8 0.00 0.00
5:53 pm 17:53 Sunny 79 26.1 42 5.6 27 27 NW 6 9 29.87 1011 9 14 0.00 0.00
6:53 pm 18:53 Sunny 75 23.9 45 7.2 34 34 NNW 5 7 29.91 1013 10 16 0.00 0.00
7:53 pm 19:53 Clear 66 18.9 47 8.3 50 50 Calm 29.95 1014 9 14 0.00 0.00
8:53 pm 20:53 Hazy 59 15 46 7.8 62 62 W 5 7 29.98 1015 3 5 0.00 0.00
9:53 pm 21:53 Clear 56 13.3 44 6.7 65 65 NW 10 17 30.03 1017 10 16 0.00 0.00
10:53 pm 22:53 Clear 58 14.4 44 6.7 60 60 NW 12 19 30.06 1018 10 16 0.00 0.00
11:53 pm 23:53 Clear 55 12.8 42 5.6 62 62 NW 8 13 30.08 1019 10 16 0.00 0.00

Powered by AerisWeather